Other Public Products
Issued by NWS Charleston, SC

Current Version | Previous Version | Graphics & Text | Print | Product List | Glossary On
Versions: 1 2 3 4 5 6 7 8 9 10 11 12 13 14 15 16 17 18 19 20 21 22 23 24 25 26 27 28 29 30 31 32 33 34 35 36 37 38 39 40 41 42 43 44 45 46 47 48 49 50
000 FPUS82 KCHS 230027 OPUCHS TEST...KCHS/KSAV Gateway Observations...TEST National Weather Service Charleston SC 800 PM EDT TUE AUG 22 2017 NOTE: "fair" indicates few or no clouds below 12,000 feet with no significant weather and/or obstructions to visibility. SCZ050-WAZ558-NCZ071-TXZ119-213-PAZ071-DCZ001-FLZ074-172-MI076- NYZ176-178-MAZ016-IL014-TNZ027-NJZ106-GAZ044-MD014-230100- ...Gateway Observations for Charleston International... CITY SKY/WX TMP DP RH WIND PRES REMARKS Chas Airport PTCLDY 81 74 79 SW8 29.99F 6HR MIN TEMP: 80; 6HR MAX TEMP: 90; 6HR PCP: 0.19; Seattle SUNNY 86 55 34 SW7 29.99F 6HR MIN TEMP: 73; 6HR MAX TEMP: 86; Charlotte MOCLDY 84 72 67 S7 29.97F 6HR MIN TEMP: 84; 6HR MAX TEMP: 93; Dallas DFW MOSUNNY 95 68 41 SE9 29.93F HX 99 6HR MIN TEMP: 94; 6HR MAX TEMP: 99; Dallas Love MOSUNNY 96 65 35 SE8 29.94S HX 98 6HR MIN TEMP: 94; 6HR MAX TEMP: 98; Philladelphia CLOUDY 86 72 62 SW15 29.82F HX 92 6HR MIN TEMP: 86; 6HR MAX TEMP: 92; Wash National PTCLDY 87 76 69 S14 29.83F HX 97 6HR MIN TEMP: 87; 6HR MAX TEMP: 92; Baltimore PTCLDY 86 73 65 S8 29.82S HX 93 6HR MIN TEMP: 86; 6HR MAX TEMP: 92; Miami MOCLDY 87 75 67 E14 29.96S HX 96 6HR MIN TEMP: 87; 6HR MAX TEMP: 93; Detroit MOCLDY 76 59 55 NW13G21 29.84R 6HR MIN TEMP: 74; 6HR MAX TEMP: 83; 6HR PCP: 0.01; Newark MOCLDY 86 71 60 S14G23 29.78S HX 91 6HR MIN TEMP: 86; 6HR MAX TEMP: 91; Laguardia MOCLDY 84 75 74 S14 29.78S HX 92 6HR MIN TEMP: 84; 6HR MAX TEMP: 91; J F K MOCLDY 78 76 93 S23 29.80S 6HR MIN TEMP: 78; 6HR MAX TEMP: 86; Boston Logan CLOUDY 79 72 79 S18G24 29.75F 6HR MIN TEMP: 79; 6HR MAX TEMP: 91; Ft. Lauderdale MOCLDY 85 76 74 E14 29.95S HX 94 6HR MIN TEMP: 85; 6HR MAX TEMP: 90; Chicago O`Hare PTCLDY 76 49 38 NW15 29.94R 6HR MIN TEMP: 76; 6HR MAX TEMP: 82; Chicago Midway PTCLDY 76 51 41 NW15 29.94R 6HR MIN TEMP: 76; 6HR MAX TEMP: 81; Houston Bush MOSUNNY 91 72 53 SE12 29.97S HX 98 6HR MIN TEMP: 90; 6HR MAX TEMP: 97; Houston Hobby MOSUNNY 91 72 53 S12 29.97S HX 98 6HR MIN TEMP: 91; 6HR MAX TEMP: 98; Nashville TSTM 78 71 79 NW9G28 29.97R 6HR MIN TEMP: 78; 6HR MAX TEMP: 91; 6HR PCP: 0.18; Atlanta PTCLDY 87 68 52 W8 30.01S HX 90 6HR MIN TEMP: 87; 6HR MAX TEMP: 93; $$ GAZ044-118-TXZ119-213-NCZ071-DCZ001-MDZ014-506-PAZ021-071-NJZ106- NYZ176-178-MAZ106-OHZ011-021-055-MIZ076-KYZ091-ILZ014-INZ047- MNZ060-ONZ431-230100- ...Gateway Observations for Savannah International... CITY SKY/WX TMP DP RH WIND PRES REMARKS Savannah Arpt CLOUDY 82 75 79 S8 30.01F 6HR MIN TEMP: 80; 6HR MAX TEMP: 88; 6HR PCP: 0.02; Atlanta PTCLDY 87 68 52 W8 30.01S HX 90 6HR MIN TEMP: 87; 6HR MAX TEMP: 93; Charlotte MOCLDY 84 72 67 S7 29.97F 6HR MIN TEMP: 84; 6HR MAX TEMP: 93; Dallas DFW MOSUNNY 95 68 41 SE9 29.93F HX 99 6HR MIN TEMP: 94; 6HR MAX TEMP: 99; Houston Bush MOSUNNY 91 72 53 SE12 29.97S HX 98 6HR MIN TEMP: 90; 6HR MAX TEMP: 97; Wash National PTCLDY 87 76 69 S14 29.83F HX 97 6HR MIN TEMP: 87; 6HR MAX TEMP: 92; Wash Dulles PTCLDY 85 72 65 S9 29.83F HX 91 6HR MIN TEMP: 85; 6HR MAX TEMP: 91; Baltimore PTCLDY 86 73 65 S8 29.82S HX 93 6HR MIN TEMP: 86; 6HR MAX TEMP: 92; Philadelphia CLOUDY 86 72 62 SW15 29.82F HX 92 6HR MIN TEMP: 86; 6HR MAX TEMP: 92; Newark MOCLDY 86 71 60 S14G23 29.78S HX 91 6HR MIN TEMP: 86; 6HR MAX TEMP: 91; Laguardia MOCLDY 84 75 74 S14 29.78S HX 92 6HR MIN TEMP: 84; 6HR MAX TEMP: 91; J F K MOCLDY 78 76 93 S23 29.80S 6HR MIN TEMP: 78; 6HR MAX TEMP: 86; Boston CLOUDY 79 72 79 S18G24 29.75F 6HR MIN TEMP: 79; 6HR MAX TEMP: 91; Pittsburg CLOUDY 74 70 87 SW6 29.86F 6HR MIN TEMP: 73; 6HR MAX TEMP: 78; 6HR PCP: 0.60; Akron PTCLDY 77 64 64 W9 29.85S 6HR MIN TEMP: 77; 6HR MAX TEMP: 85; 6HR PCP: 0.01; Cleveland LGT RAIN 70 67 90 W6 29.85R 6HR MIN TEMP: 70; 6HR MAX TEMP: 82; 6HR PCP: 0.18; Cincinnati MOCLDY 75 71 87 W5 29.92S 6HR MIN TEMP: 75; 6HR MAX TEMP: 82; 6HR PCP: 0.19; Columbus PTCLDY 75 69 81 CALM 29.88R Detroit MOCLDY 76 59 55 NW13G21 29.84R 6HR MIN TEMP: 74; 6HR MAX TEMP: 83; 6HR PCP: 0.01; Chicago O`Hare PTCLDY 76 49 38 NW15 29.94R 6HR MIN TEMP: 76; 6HR MAX TEMP: 82; Minneapolis MOSUNNY 71 47 42 NW12G25 30.03F 6HR MIN TEMP: 71; 6HR MAX TEMP: 76; Indianapolis PTCLDY 76 64 66 NW17 29.93R 6HR MIN TEMP: 75; 6HR MAX TEMP: 82; Toronto Canada MOCLDY 70 57 64 NW25G36 29.71R $$

USA.gov is the U.S. government's official web portal to all federal, state and local government web resources and services.